Location: Newark
(42.7133°N, 87.7910°W)
Time: 06:49:49
(UTC+00:00)

Vanguard 1 Rocket - Pass Details

Date: 20 September 2019
Orbit: 650 x 4226 km, 34.3° (Epoch: 17 October)

Event Time Altitude Azimuth Distance (km) Brightness Sun altitude
Rises 04:14:57 0° 274° (W) 6,390 12.1 -41.6°
Reaches altitude 10° 04:20:17 10° 268° (W) 4,751 11.2 -42.1°
Enters shadow 04:26:20 26° 250° (WSW) 2,897 9.9 -42.7°
